Waarnemingen

Advertentie
Mijn weer
Strathallan, Groot Brittannië (3144): temperatuur & dauwpunt: 31.05.2020 01:00:00 - 06.06.2020 01:00:00 (BST)Strathallan, Groot Brittannië (3144): temperatuur -20cm & temperatuur -100cm: 31.05.2020 01:00:00 - 06.06.2020 01:00:00 (BST)Strathallan, Groot Brittannië (3144): windsnelheid & windstoten: 31.05.2020 01:00:00 - 06.06.2020 01:00:00 (BST)Strathallan, Groot Brittannië (3144): windrichting: 31.05.2020 01:00:00 - 06.06.2020 01:00:00 (BST)Strathallan, Groot Brittannië (3144): luchtdruk: 31.05.2020 01:00:00 - 06.06.2020 01:00:00 (BST)Strathallan, Groot Brittannië (3144): zicht: 31.05.2020 01:00:00 - 06.06.2020 01:00:00 (BST)Strathallan, Groot Brittannië (3144): neerslag: 31.05.2020 01:00:00 - 06.06.2020 01:00:00 (BST)
Datum & Tijd tt [°C] td [°C] tt -20cm [°C] tt -100cm [°C] ff [km/u] ff [kn] fx [km/u] fx [kn] dd ppp [hPa] vv [km] rr [mm]
06.06.2020 01:00:00 9,7 5,4 - - 18 10 - - W 989,3 30 0,0
06.06.2020 00:00:00 9,7 4,1 - - 24 13 - - W 988,9 50 0,0
05.06.2020 23:00:00 9,4 3,4 - - 26 14 - - W 988,9 50 0,0
05.06.2020 22:00:00 9,4 2,9 - - 26 14 52 28 W 989,0 50 0,0
05.06.2020 21:00:00 9,2 2,8 - - 22 12 - - W 989,7 50 0,0
05.06.2020 20:00:00 9,2 2,3 - - 29 16 50 27 W 990,0 50 0,0
05.06.2020 19:00:00 9,2 2,6 - - 31 17 48 26 W 990,6 50 0,0
05.06.2020 18:00:00 10,4 3,0 - - 26 14 50 27 W 991,1 45 0,0
05.06.2020 17:00:00 12,1 3,6 - - 26 14 48 26 W 991,4 35 0,0
05.06.2020 16:00:00 11,6 3,0 - - 28 15 50 27 W 991,8 50 0,0
05.06.2020 15:00:00 12,8 2,9 - - 24 13 50 27 WNW 992,4 45 0,0
05.06.2020 14:00:00 13,1 5,2 - - 18 10 - - WNW 992,8 23 0,0
05.06.2020 13:00:00 12,2 5,0 - - 18 10 - - W 993,7 45 0,0
05.06.2020 12:00:00 11,9 2,5 - - 26 14 - - WNW 994,0 35 0,2
05.06.2020 11:00:00 9,5 3,1 - - 18 10 - - WNW 995,0 23 0,0
05.06.2020 10:00:00 9,5 2,9 13,2 11,2 15 8 - - W 995,3 50 0,0
05.06.2020 09:00:00 8,8 3,5 - - 8 4 - - WNW 995,9 45 0,0
05.06.2020 08:00:00 8,2 3,3 - - 11 6 - - W 996,3 50 0,0
05.06.2020 07:00:00 7,2 3,4 - - 9 5 - - ZW 996,4 50 0,0
05.06.2020 06:00:00 6,6 2,8 - - 9 5 - - WZW 996,7 50 0,0
05.06.2020 05:00:00 6,1 2,9 - - 5 3 - - ZW 997,1 50 0,0
05.06.2020 04:00:00 6,2 3,0 - - 11 6 - - W 997,3 50 0,0
05.06.2020 03:00:00 6,2 3,4 - - 8 4 - - W 998,0 50 0,0
05.06.2020 02:00:00 7,1 3,5 - - 11 6 - - NNW 998,5 50 0,0
05.06.2020 01:00:00 7,5 4,8 - - 8 4 - - NW 999,0 50 0,0
05.06.2020 00:00:00 7,9 6,8 - - 9 5 - - WNW 999,5 35 0,0
04.06.2020 23:00:00 7,9 7,3 - - 5 3 - - W 999,7 35 0,0
04.06.2020 22:00:00 8,2 7,3 - - 4 2 - - W 999,9 45 0,0
04.06.2020 21:00:00 8,3 6,9 - - 4 2 - - NO 1000,3 50 0,2
04.06.2020 20:00:00 8,9 7,2 - - 8 4 - - ONO 1000,4 40 0,0
04.06.2020 19:00:00 8,8 7,0 - - 15 8 - - O 1000,2 40 0,0
04.06.2020 18:00:00 9,5 7,3 - - 18 10 - - NNO 999,8 12 0,8
04.06.2020 17:00:00 13,0 9,5 - - 5 3 - - ONO 999,2 50 0,4
04.06.2020 16:00:00 11,8 9,5 - - 8 4 - - NO 1000,0 15 1,6
04.06.2020 15:00:00 12,9 9,3 - - 4 2 - - ZO 1000,4 50 1,0
04.06.2020 14:00:00 12,1 8,6 - - 5 3 - - O 1001,1 27 1,0
04.06.2020 13:00:00 12,4 7,5 - - 8 4 - - O 1001,6 35 0,0
04.06.2020 12:00:00 12,0 6,9 - - 4 2 - - O 1002,4 50 0,0
04.06.2020 11:00:00 10,9 6,8 - - 5 3 - - Z 1003,2 50 0,0
04.06.2020 10:00:00 9,4 7,0 13,9 11,2 8 4 - - ZZW 1004,0 12 0,2
04.06.2020 09:00:00 9,2 6,7 - - 5 3 - - ZW 1004,7 40 0,6
04.06.2020 08:00:00 9,3 5,8 - - 4 2 - - ZW 1005,1 50 0,0
04.06.2020 07:00:00 9,1 5,9 - - 4 2 - - WZW 1005,7 50 0,0
04.06.2020 06:00:00 7,7 6,3 - - 5 3 - - WZW 1006,8 50 0,0
04.06.2020 05:00:00 7,5 6,3 - - 4 2 - - ZW 1007,6 50 0,0
04.06.2020 04:00:00 7,6 6,1 - - 4 2 - - ONO 1008,5 50 0,0
04.06.2020 03:00:00 7,6 6,4 - - 4 2 - - W 1009,2 50 0,0
04.06.2020 02:00:00 7,7 6,1 - - 2 1 - - WZW 1010,1 50 0,0
04.06.2020 01:00:00 7,6 5,8 - - 2 1 - - Z 1011,3 50 0,0
04.06.2020 00:00:00 8,6 4,1 - - 5 3 - - N 1012,0 50 0,0
03.06.2020 23:00:00 9,7 4,0 - - 4 2 - - ZW 1012,6 50 0,0
03.06.2020 22:00:00 10,7 3,9 - - 5 3 - - NO 1013,2 50 0,0
03.06.2020 21:00:00 12,0 3,3 - - 11 6 - - N 1013,3 45 0,0
03.06.2020 20:00:00 12,8 3,7 - - 11 6 - - N 1013,6 50 0,0
03.06.2020 19:00:00 13,8 2,8 - - 15 8 - - N 1013,7 45 0,0
03.06.2020 18:00:00 14,4 4,0 - - 18 10 - - N 1014,2 45 0,0
03.06.2020 17:00:00 13,9 3,9 - - 18 10 - - N 1014,6 50 0,0
03.06.2020 16:00:00 15,0 5,4 - - 21 11 - - NNO 1015,2 45 0,0
03.06.2020 15:00:00 13,9 5,1 - - 16 9 - - N 1015,4 50 0,0
03.06.2020 14:00:00 13,8 4,8 - - 18 10 - - N 1015,7 40 0,0
03.06.2020 13:00:00 14,1 5,6 - - 9 5 - - NNW 1016,2 45 0,0
03.06.2020 12:00:00 13,0 5,9 - - 15 8 - - N 1016,7 50 0,0
03.06.2020 11:00:00 11,4 4,9 - - 16 9 - - NNW 1017,3 50 0,0
03.06.2020 10:00:00 11,1 5,3 14,2 11,0 16 9 - - NNW 1017,4 30 0,0
03.06.2020 09:00:00 11,8 5,3 - - 15 8 - - N 1017,4 50 0,0
03.06.2020 08:00:00 10,8 4,5 - - 15 8 - - NNO 1017,5 40 0,0
03.06.2020 07:00:00 10,0 5,2 - - 9 5 - - NNO 1017,7 40 0,0
03.06.2020 06:00:00 8,9 6,4 - - 2 1 - - NNO 1017,6 50 0,0
03.06.2020 05:00:00 8,6 6,5 - - 2 1 - - NO 1017,6 50 0,0
03.06.2020 04:00:00 8,8 6,8 - - 4 2 - - NNO 1017,5 50 0,0
03.06.2020 03:00:00 9,1 7,1 - - 11 6 - - NNO 1017,5 50 0,2
03.06.2020 02:00:00 9,3 8,1 - - 5 3 - - NNO 1018,0 50 0,0
03.06.2020 01:00:00 9,5 8,2 - - 15 8 - - NNO 1017,8 19 1,6
03.06.2020 00:00:00 10,8 10,3 - - 9 5 - - NO 1017,8 6 2,4
02.06.2020 23:00:00 11,4 10,9 - - 9 5 - - ONO 1017,6 5 1,6
02.06.2020 22:00:00 11,8 11,1 - - 13 7 - - NO 1017,2 3,3 8,8
02.06.2020 21:00:00 12,6 11,7 - - 11 6 - - ONO 1016,8 2,6 4,0
02.06.2020 20:00:00 13,2 11,5 - - 9 5 - - NO 1017,1 0,9 0,0
02.06.2020 19:00:00 14,8 12,1 - - 9 5 - - ONO 1016,9 45 0,0
02.06.2020 18:00:00 14,8 11,8 - - 9 5 - - O 1017,6 22 0,4
02.06.2020 17:00:00 17,5 13,8 - - 5 3 - - NW 1017,9 40 0,2
02.06.2020 16:00:00 17,4 13,0 - - 5 3 - - W 1018,2 45 0,0
02.06.2020 15:00:00 18,4 11,8 - - 9 5 - - W 1018,6 35 0,0
02.06.2020 14:00:00 18,9 11,9 - - 11 6 - - W 1018,9 26 0,0
02.06.2020 13:00:00 21,4 11,3 - - 5 3 - - ZW 1019,1 40 0,0
02.06.2020 12:00:00 20,7 11,5 - - 8 4 - - WZW 1019,6 29 0,0
02.06.2020 11:00:00 18,9 11,3 - - 5 3 - - W 1020,5 45 0,0
02.06.2020 10:00:00 18,4 12,0 - - 4 2 - - W 1021,0 45 -
02.06.2020 09:00:00 16,3 11,1 - - 4 2 - - NNW 1021,5 29 -
02.06.2020 08:00:00 13,6 10,6 - - 2 1 - - Z 1022,1 50 0,0
02.06.2020 07:00:00 10,7 9,9 - - 4 2 - - WZW 1022,5 40 0,0
02.06.2020 06:00:00 9,1 8,6 - - 2 1 - - ZW 1022,9 50 0,0
02.06.2020 05:00:00 8,1 7,5 - - 0 0 - - N 1023,3 35 0,0
02.06.2020 04:00:00 8,5 7,8 - - 4 2 - - ZW 1023,7 50 0,0
02.06.2020 03:00:00 8,9 8,1 - - 5 3 - - ZW 1024,1 50 0,0
02.06.2020 02:00:00 9,0 8,0 - - 5 3 - - WZW 1024,5 50 0,0
02.06.2020 01:00:00 9,6 8,1 - - 4 2 - - ZW 1025,0 50 0,0
02.06.2020 00:00:00 10,3 8,5 - - 2 1 - - ZZO 1025,3 50 0,0
01.06.2020 23:00:00 11,9 9,0 - - 2 1 - - OZO 1025,1 50 0,0
01.06.2020 22:00:00 14,8 8,8 - - 2 1 - - ONO 1025,0 50 0,0
01.06.2020 21:00:00 18,3 8,6 - - 5 3 - - ONO 1024,6 50 0,0
01.06.2020 20:00:00 20,6 8,6 - - 8 4 - - ZO 1024,5 35 0,0
01.06.2020 19:00:00 21,5 9,5 - - 9 5 - - ZZO 1024,8 40 0,0
01.06.2020 18:00:00 22,3 9,5 - - 9 5 - - ZO 1024,9 45 0,0
01.06.2020 17:00:00 22,6 9,9 - - 11 6 - - ZO 1025,0 28 0,0
01.06.2020 16:00:00 23,3 11,1 - - 8 4 - - ZZO 1025,3 25 0,0
01.06.2020 15:00:00 23,7 12,4 - - 8 4 - - ZO 1025,7 45 0,0
01.06.2020 14:00:00 23,0 12,4 - - 5 3 - - ZO 1026,2 50 0,0
01.06.2020 13:00:00 21,7 9,0 - - 5 3 - - ZO 1026,5 30 0,0
01.06.2020 12:00:00 20,0 9,4 - - 4 2 - - NO 1027,0 30 0,0
01.06.2020 11:00:00 18,5 10,8 - - 4 2 - - WNW 1027,4 45 0,0
01.06.2020 10:00:00 16,6 10,3 14,9 10,7 4 2 - - O 1027,7 40 0,0
01.06.2020 09:00:00 14,5 9,1 - - 4 2 - - ONO 1028,0 45 0,0
01.06.2020 08:00:00 11,8 9,1 - - 2 1 - - WNW 1028,3 27 0,0
01.06.2020 07:00:00 9,5 9,4 - - 0 0 - - N 1028,4 40 0,0
01.06.2020 06:00:00 5,8 5,6 - - 2 1 - - ZW 1028,2 29 0,0
01.06.2020 05:00:00 5,3 5,0 - - 2 1 - - ZW 1027,8 16 0,0
01.06.2020 04:00:00 5,5 5,1 - - 5 3 - - WZW 1027,9 21 0,0
01.06.2020 03:00:00 6,0 5,6 - - 5 3 - - WZW 1027,9 12 0,0
01.06.2020 02:00:00 7,0 6,5 - - 5 3 - - WZW 1027,9 20 0,0
01.06.2020 01:00:00 8,1 7,0 - - 2 1 - - NNO 1027,9 30 0,0
01.06.2020 00:00:00 10,0 8,3 - - 5 3 - - ONO 1027,8 50 0,0
31.05.2020 23:00:00 10,8 7,5 - - 2 1 - - ONO 1027,7 45 0,0
31.05.2020 22:00:00 13,0 8,2 - - 4 2 - - ONO 1027,1 50 0,0
31.05.2020 21:00:00 15,6 8,5 - - 8 4 - - NO 1026,7 45 0,0
31.05.2020 20:00:00 17,3 8,4 - - 13 7 - - ONO 1026,1 45 0,0
31.05.2020 19:00:00 18,4 8,0 - - 15 8 - - ONO 1025,9 30 0,0
31.05.2020 18:00:00 19,5 8,9 - - 16 9 - - O 1025,7 40 0,0
31.05.2020 17:00:00 19,9 9,2 - - 15 8 - - ONO 1025,8 40 0,0
31.05.2020 16:00:00 19,6 9,4 - - 16 9 - - ONO 1026,2 45 0,0
31.05.2020 15:00:00 19,7 9,8 - - 16 9 - - ONO 1026,4 22 0,0
31.05.2020 14:00:00 19,6 10,3 - - 15 8 - - ONO 1026,5 45 0,0
31.05.2020 13:00:00 18,7 9,5 - - 16 9 - - NO 1027,0 22 0,0
31.05.2020 12:00:00 18,0 10,6 - - 13 7 - - ONO 1027,2 30 0,0
31.05.2020 11:00:00 16,8 10,9 - - 11 6 - - NO 1027,7 27 0,0
31.05.2020 10:00:00 15,1 10,7 14,7 10,4 11 6 - - NO 1028,1 30 0,0
31.05.2020 09:00:00 13,7 9,9 - - 11 6 - - NO 1028,4 30 0,0
31.05.2020 08:00:00 11,4 8,9 - - 9 5 - - ONO 1028,5 19 0,0
31.05.2020 07:00:00 11,3 8,9 - - 11 6 - - NO 1028,3 26 0,0
31.05.2020 06:00:00 10,3 8,9 - - 8 4 - - NO 1027,8 23 0,0
31.05.2020 05:00:00 10,2 8,6 - - 8 4 - - NO 1027,6 29 0,0
31.05.2020 04:00:00 10,2 8,5 - - 9 5 - - NO 1027,5 30 0,0
31.05.2020 03:00:00 10,5 8,6 - - 11 6 - - NO 1027,5 30 0,0
31.05.2020 02:00:00 10,5 8,8 - - 9 5 - - NO 1027,6 29 0,0
31.05.2020 01:00:00 10,2 8,6 - - 8 4 - - NNO 1027,6 23 0,0

tt = temperatuur
td = dauwpunt
tt -20cm = temperatuur -20cm
tt -100cm = temperatuur -100cm
ff = windsnelheid
fx = windstoten
dd = windrichting
ppp = luchtdruk
vv = zicht
rr = neerslag

Weerstations in de omgeving